SL-16 R/B

Satellite information

Favourite Embed

Satellite Type and Status

ROCKET BODYIN ORBIT

Key statistics

Satellite SL-16 R/B at a glance.

Uptime

14612

Days in orbit

Revolutions

≈ 14.2

Per day

Orbit

LEO

Low Earth Orbit

Inclination

71.0

Latest

Satellite identification and parameters

Extended collection of information and parameters for SL-16 R/B.

Object identification

Identified? True

Debris? False

Object name: SL-16 R/B

International designator: 1985-097B

Object number (NORAD): 16182

Object ID (CCSDS): 16182

Country: COMMONWEALTH OF INDEPENDENT STATES (CIS)

Current information (Y/N): Y

RCS size: LARGE

Orbital parameters

Period: 101.654 minutes

Inclination: 71.0025 deg

SMA: 7215.107 km

Apoapsis: 840.84 km

Periapsis: 833.105 km

RAAN: 69.0857 deg

Eccentricy: 0.000536

Argument of periapsis: 111.7298 deg

Mean anomaly: 259.2256 deg

Mean motion: 14.16571713 rev/day

Mean motion (dot): 0.00000202 rev/day2

B* drag term: 0.00012537 1/REarth

Two-line elements (TLE)

Creation date: Oct. 23, 2025, 10:16 p.m.

Reference frame: TEME

Reference center: EARTH

Epoch: Oct. 23, 2025, 3:12 p.m. UTC

TLE line 0: 0 SL-16 R/B

TLE line 1: 1 16182U 85097B 25296.63392427 .00000202 00000-0 12537-3 0 9992

TLE line 2: 2 16182 71.0025 69.0857 0005360 111.7298 259.2256 14.16571713 67823

Live tracking on map

Real-time ground track for satellite SL-16 R/B.

In-orbit conjunctions

A list of the most updated potential collisions computed for object SL-16 R/B.

Target Orbit TCA Probability of collision Miss distance Type
SL-16 DEB LEO 2025-10-15 03:26:18 0.0009572843 323.0 (m) DEBRIS
COSMOS 1275 DEB LEO 2025-08-31 09:45:12 0.002164587 33.0 (m) DEBRIS
DMSP 5D-2 F13 DEB SSO 2025-02-10 02:25:35 0.0002073403 53.0 (m) DEBRIS
FENGYUN 1C DEB SSO 2025-01-26 14:00:56 0.0001465609 356.0 (m) DEBRIS
FENGYUN 1C DEB SSO 2024-11-13 10:27:44 0.0001728706 376.0 (m) DEBRIS

Associated space launch

Dynamic simulator of the Tselina-2 ELINT satellite

SL-16 R/B was lifted into orbit during the mission ‘Zenit-2 | GVM Tselina-2’, on board a Zenit-2 space rocket.

The launch took place on Oct. 22, 1985, 7 a.m. from 45/1.

For more information about the launch, click the button.

Launch to space Zenit-2 | GVM Tselina-2
Zenit-2 | GVM Tselina-2

Agency: N/A

Status: Launch Successful

Launch date: Oct. 22, 1985, 7 a.m. UTC

Rocket: Zenit-2

Launch pad: 45/1

Location: Baikonur Cosmodrome, Republic of Kazakhstan

...

Latest news about this satellite

There are no fresh news available about this satellite. Check back as we update our databases every day.


Newsletter sign-up

Weekly statistics, charts and insights to help you stay on top of the space industry.